Theta_e
303 309 310 313 318 311 304 307 309 306 306 306 306 307 307 306 306 306 306 300 295 302 307 303 302 302 300 300 299 298 298 296 295 294 295 296 297 298 299 300 301 301 302 303 302 301 301 301 300 300 299 298 298 297 297 296 296 295 295 294 294 293 292 291 291 290 290 289 289 288 288 286 285 284 283 282 281 280 279 279 278 278 277 276 276 276
306 310 311 311 310 304 302 303 304 304 306 306 306 307 306 306 307 304 302 300 296 300 306 303 302 301 300 300 299 297 297 295 294 294 294 296 297 298 299 300 301 301 302 302 302 302 301 301 301 300 300 299 299 298 298 297 296 296 295 295 294 293 292 292 291 290 290 289 289 288 288 286 285 284 283 282 281 280 279 279 278 277 276 276 276 276
312 309 306 302 298 298 301 303 304 306 307 306 305 306 308 307 306 304 301 299 298 299 303 302 299 300 300 300 299 296 296 297 296 295 296 297 297 298 300 301 301 301 302 302 302 302 302 301 301 301 300 300 299 299 298 297 297 296 296 295 295 294 293 292 291 290 290 289 289 288 288 286 286 285 283 282 280 279 279 279 278 277 276 275 276 276
312 308 302 295 295 301 304 302 304 306 305 307 306 307 310 306 304 308 304 300 300 299 300 301 298 299 299 300 301 295 293 295 295 296 296 296 297 298 299 300 301 301 302 302 303 303 302 302 301 301 301 300 300 299 299 298 297 297 296 296 295 294 293 292 291 290 289 289 289 288 288 287 286 285 283 282 280 279 278 278 278 277 276 275 275 275
309 302 296 294 298 304 304 302 303 305 306 308 307 307 310 307 302 306 303 300 302 301 298 300 304 306 304 306 308 299 292 294 294 295 296 296 297 298 298 300 301 302 302 302 303 303 302 302 302 301 301 301 300 300 300 299 298 297 297 296 295 294 293 292 291 290 289 289 289 288 288 287 285 285 283 282 280 279 278 278 278 277 276 275 275 275
306 298 296 299 301 303 304 305 304 305 307 309 308 305 305 305 301 302 302 301 306 306 299 300 307 313 309 308 309 304 298 297 294 292 294 298 298 298 300 302 302 302 302 303 303 303 303 302 302 302 301 301 301 300 300 299 298 297 296 296 295 294 293 292 291 290 289 289 289 288 288 286 285 284 283 281 280 279 278 278 278 277 276 275 275 275
302 296 296 302 304 303 304 305 303 303 306 308 306 302 300 302 301 302 302 302 307 307 300 298 305 309 307 306 306 303 302 302 300 295 295 298 299 299 301 303 303 303 303 303 303 303 303 302 302 302 301 301 301 300 299 298 298 297 297 296 295 294 293 292 291 290 290 289 289 289 288 287 285 284 283 281 280 279 278 278 278 277 277 275 274 275
301 299 299 301 303 302 303 305 303 303 308 310 303 298 300 301 301 301 300 302 304 303 299 297 301 304 306 306 302 299 303 307 307 306 301 299 302 302 303 304 303 304 304 303 303 303 303 302 302 302 301 301 300 300 299 299 298 297 297 296 295 294 293 292 291 290 290 290 289 289 288 287 285 284 283 281 280 279 278 277 277 277 277 276 274 274
301 304 303 302 303 303 304 306 303 302 305 306 299 298 300 299 300 300 300 304 300 300 304 301 298 304 308 307 302 299 305 309 310 313 307 301 303 304 303 305 304 304 304 303 303 303 302 302 302 301 301 301 300 300 299 299 298 297 297 296 295 294 294 292 292 291 291 290 289 289 288 287 285 284 283 281 280 279 278 277 277 277 276 275 274 274
299 302 302 302 305 306 305 301 298 302 303 299 296 297 299 298 299 299 301 304 300 301 309 305 299 304 309 309 307 304 306 310 313 315 307 301 303 305 303 304 304 303 303 303 303 303 302 302 302 301 301 301 300 300 299 299 298 298 297 296 296 295 294 293 292 292 291 290 290 289 288 287 285 284 282 281 279 279 278 277 277 277 276 275 274 273
298 299 299 300 302 302 301 297 294 298 298 296 297 299 300 299 298 299 301 301 302 308 309 302 298 302 307 310 310 308 306 308 311 312 307 302 303 304 303 303 303 303 303 303 303 302 302 302 301 301 301 300 300 299 299 299 298 298 297 296 296 295 294 293 293 292 291 290 290 289 288 287 285 284 282 281 279 279 277 276 276 276 275 275 274 273
299 301 302 300 298 297 299 299 295 294 295 296 300 302 303 304 300 302 305 302 306 314 307 299 298 300 305 310 311 309 306 305 305 306 307 303 301 303 303 303 303 303 303 303 303 302 302 302 301 301 301 300 300 299 299 299 298 297 297 296 296 295 294 294 293 292 291 290 290 289 288 287 285 284 282 281 279 279 277 276 276 276 275 275 274 273
305 303 301 298 298 298 299 302 299 297 299 299 302 306 308 311 310 310 312 308 310 312 301 297 300 300 303 306 306 306 305 303 301 300 302 300 299 302 303 303 303 303 303 302 302 301 301 301 300 300 300 300 300 299 299 298 298 297 297 296 296 295 295 294 293 292 291 291 290 289 288 286 285 284 283 281 279 279 277 276 276 276 275 274 274 273
312 305 300 300 301 297 298 304 304 302 302 300 303 309 311 311 312 314 313 308 309 307 298 296 300 302 305 306 305 306 304 300 298 297 299 299 300 302 302 303 303 302 302 301 300 300 300 299 299 299 299 299 299 299 299 298 298 297 297 296 296 295 295 294 293 292 291 291 290 289 287 286 285 284 283 281 279 279 277 276 276 275 275 274 274 273
311 309 303 301 301 298 297 300 301 302 303 301 300 303 308 310 310 311 313 311 309 307 300 297 301 307 311 308 303 301 299 297 298 299 299 300 301 302 301 302 301 300 300 300 300 299 299 299 298 298 298 298 298 298 298 298 298 297 297 296 296 295 295 294 293 292 292 291 290 288 287 286 285 284 283 281 280 279 278 276 276 275 275 274 274 273
306 308 302 297 296 296 298 296 295 300 303 299 297 301 307 309 309 307 306 304 303 304 303 301 303 306 307 305 301 297 297 297 298 299 300 301 301 301 301 300 299 300 299 299 299 298 298 298 297 297 297 297 297 297 297 297 297 297 296 296 296 295 294 294 293 293 292 291 290 288 287 286 285 284 283 281 280 279 278 276 276 275 275 274 274 273
305 307 301 297 296 295 297 296 294 299 303 300 299 304 303 299 304 306 302 297 297 302 306 303 304 305 304 306 306 304 304 302 300 299 299 301 301 300 299 299 299 299 299 298 298 297 297 297 297 296 296 296 296 296 296 296 296 296 295 295 295 295 294 294 293 293 292 291 290 288 287 286 285 284 283 281 280 279 278 276 276 276 275 274 274 274
304 308 302 297 299 297 294 295 294 294 299 302 303 304 299 295 301 304 302 303 304 306 305 302 305 307 306 309 311 307 307 306 303 300 297 299 300 298 298 298 298 298 298 298 297 297 297 296 296 296 296 296 296 295 295 295 295 295 294 294 294 294 294 294 293 292 291 290 289 288 287 286 286 284 283 281 280 278 277 277 276 275 275 274 274 273
302 308 305 297 299 298 294 296 299 295 294 299 300 298 298 300 305 305 302 306 307 305 306 303 303 305 305 309 310 305 304 304 303 301 298 297 297 296 297 297 297 297 297 297 296 296 296 296 295 295 295 295 295 295 295 294 294 294 293 293 293 293 293 293 292 292 291 290 289 288 287 286 286 284 283 282 280 278 277 277 276 275 275 274 274 273
300 305 307 299 296 298 297 299 305 302 296 295 297 297 298 301 305 304 301 303 305 304 306 304 303 305 307 308 307 304 302 301 300 300 298 296 295 296 296 297 297 297 296 296 296 296 295 295 295 294 294 294 294 294 294 294 294 293 293 292 292 292 292 292 292 291 291 290 289 288 287 286 285 284 283 282 280 278 277 276 276 276 275 274 274 273
301 302 307 304 297 298 302 301 304 306 302 300 301 301 300 299 300 300 299 300 304 305 306 305 304 306 306 304 304 303 301 299 298 297 296 295 296 296 296 296 296 296 295 295 295 295 295 294 294 294 293 293 293 294 293 293 293 293 293 292 291 291 291 290 290 290 290 289 288 287 287 286 285 284 283 281 280 278 277 276 276 276 275 274 274 273
302 302 306 307 302 303 305 299 296 300 302 304 306 305 304 303 302 302 301 299 300 302 305 304 302 304 305 305 304 302 299 297 296 295 295 296 296 296 296 296 296 295 295 295 295 295 294 293 293 293 293 293 293 293 293 293 293 293 293 292 291 290 290 290 289 289 289 288 287 287 286 285 284 283 283 281 280 278 277 276 275 275 275 274 274 273
298 301 304 305 303 302 300 293 290 293 296 299 301 300 302 304 304 305 305 302 299 298 299 299 299 303 304 302 301 299 296 296 296 295 296 296 296 296 295 295 295 295 294 295 294 294 293 293 293 292 292 292 292 292 292 292 292 293 293 292 290 290 289 289 288 288 287 287 286 286 285 285 284 283 282 281 280 278 277 275 275 275 275 274 274 273
298 301 303 304 305 301 296 293 291 291 293 297 298 297 299 302 302 303 302 301 300 299 299 299 300 303 300 296 295 296 296 295 296 296 296 296 295 295 295 294 294 294 294 294 294 293 293 293 292 292 292 291 291 291 291 291 292 292 292 291 290 290 289 288 287 287 286 285 285 284 284 284 283 283 282 281 280 278 277 275 274 274 274 274 273 273
300 304 304 304 307 305 303 303 301 297 296 298 299 296 296 298 298 298 296 296 298 300 300 301 301 302 301 298 296 296 296 295 296 296 296 295 295 295 294 294 294 294 294 294 293 292 292 292 292 292 292 291 291 291 291 291 291 291 291 291 290 289 289 287 286 286 285 285 284 283 283 283 283 283 282 281 280 278 277 275 274 274 274 274 273 273
300 304 303 303 306 306 306 309 307 304 301 299 298 297 295 296 297 299 299 298 299 299 299 301 302 301 301 300 298 298 296 295 295 295 295 295 294 294 294 293 293 293 293 293 292 292 292 292 292 291 291 291 290 290 291 291 291 290 290 290 290 289 288 287 286 285 285 284 283 283 283 282 283 282 282 281 280 278 276 275 275 275 274 274 273 273
300 300 300 304 306 305 305 304 301 301 301 299 299 299 298 296 295 298 301 300 300 299 298 300 300 298 298 298 298 297 296 295 295 294 294 294 294 293 293 293 293 293 293 293 292 292 291 291 291 291 291 290 290 290 290 290 291 290 290 290 289 289 288 287 286 285 284 283 283 283 282 282 282 282 281 281 279 277 276 276 275 275 275 274 273 273
301 301 300 302 303 302 302 301 298 297 298 298 298 298 299 298 295 296 298 299 300 299 298 299 299 298 298 297 297 296 295 295 294 294 294 293 293 293 293 293 293 293 293 292 291 291 291 291 291 291 290 290 290 289 289 290 290 290 290 289 289 289 288 287 285 284 284 283 282 282 282 282 281 281 280 280 278 277 276 276 275 275 275 275 274 274
301 303 298 297 301 300 298 297 296 296 296 297 297 298 298 297 296 296 297 297 297 297 298 299 298 298 297 296 296 295 294 294 293 293 293 293 293 292 292 292 292 292 292 291 291 291 291 291 291 290 290 289 289 289 289 289 289 289 289 289 289 289 288 287 286 285 284 283 283 283 282 281 280 280 279 279 278 277 276 276 276 275 275 275 275 274
298 304 298 296 299 299 297 297 296 296 297 297 297 297 296 296 295 295 296 295 295 295 296 296 295 295 295 295 294 294 294 294 293 293 293 292 292 292 292 292 292 292 291 291 291 291 291 291 290 290 289 289 289 289 289 289 288 288 288 288 289 289 288 288 288 286 285 284 283 282 281 280 279 279 278 278 278 277 277 276 276 275 275 275 275 274
295 301 298 296 300 300 299 299 297 296 297 297 299 299 297 296 296 295 294 294 294 295 295 294 294 294 294 294 294 293 294 293 292 292 292 292 292 292 292 292 292 291 291 290 290 290 290 290 290 289 289 289 289 288 288 288 288 287 287 287 288 288 288 288 287 287 286 285 283 281 280 280 279 278 278 278 278 277 277 276 275 274 274 274 274 274
296 298 296 297 301 302 301 300 298 296 295 296 299 300 298 298 298 298 298 297 297 297 297 296 295 296 295 294 293 293 293 292 292 292 292 292 292 291 291 292 291 291 290 290 290 290 290 290 289 289 289 288 289 288 288 288 287 287 287 286 287 287 288 288 287 287 286 285 283 282 280 280 279 278 278 278 278 277 277 276 275 274 274 274 274 274
295 298 298 297 301 304 301 298 296 296 298 300 298 297 297 298 298 298 298 298 296 296 296 297 296 296 294 293 293 292 292 292 292 292 292 291 291 291 291 291 291 290 290 290 290 290 290 289 289 289 289 289 288 288 288 287 287 286 286 286 286 286 286 287 287 287 286 285 284 282 281 279 279 278 278 278 277 277 276 275 275 274 274 274 274 274
293 297 298 295 299 306 302 297 297 300 303 302 298 296 297 297 297 297 297 296 295 295 296 296 294 294 293 292 292 292 292 292 292 292 291 291 291 291 291 291 290 290 290 290 290 289 289 289 289 289 288 288 288 288 288 287 286 286 286 286 286 286 286 286 286 286 286 286 284 283 281 280 279 278 278 277 277 276 276 276 275 275 274 274 274 274
295 296 296 294 297 302 300 299 303 305 303 300 298 297 296 295 297 297 295 296 296 294 294 294 293 293 292 292 292 291 291 292 292 292 291 291 291 291 291 290 290 290 289 289 289 289 288 288 288 288 288 288 288 288 288 287 286 286 286 286 286 286 285 284 284 284 284 285 285 284 282 280 279 279 278 277 276 276 275 275 275 275 274 274 274 274
299 298 296 295 296 298 298 300 303 303 299 298 299 298 295 295 296 295 294 296 296 294 293 293 293 292 291 291 291 291 292 292 291 291 291 291 291 291 290 290 289 289 289 288 288 288 288 287 287 287 287 287 287 287 288 287 287 286 286 286 285 286 286 284 284 284 284 283 284 284 284 282 280 279 278 277 276 275 275 275 275 275 274 273 273 273
297 299 297 296 296 296 297 299 300 300 297 297 298 296 294 294 295 294 293 294 294 293 292 292 292 291 291 291 291 291 291 291 291 291 291 291 290 290 289 289 289 288 288 288 287 287 287 286 286 286 286 287 287 287 287 287 287 286 286 286 285 286 286 285 284 284 283 283 283 283 284 283 281 280 278 277 276 275 275 275 275 274 274 273 273 273
290 295 297 297 296 296 297 299 301 302 301 298 296 294 293 293 293 291 292 294 292 291 292 292 291 291 291 291 291 291 291 291 290 290 290 290 290 289 289 289 288 288 288 287 287 287 286 286 285 285 286 286 287 287 287 287 287 286 285 285 285 286 286 285 284 284 283 283 282 282 283 283 283 281 279 278 277 276 276 275 275 274 273 273 272 273
291 294 297 298 298 297 298 300 301 303 302 297 294 293 293 292 291 289 291 295 294 292 291 292 291 290 291 290 290 291 290 290 290 290 290 290 289 289 289 288 288 288 288 287 287 287 286 285 285 285 286 286 287 287 287 287 286 285 285 285 285 285 285 284 284 283 282 282 282 282 282 282 283 282 280 279 278 277 276 275 274 274 273 272 272 272
296 296 297 298 300 297 297 299 300 300 299 295 293 293 292 291 291 291 292 295 295 292 292 292 290 290 290 290 290 290 290 290 290 290 289 289 289 289 289 288 288 288 288 287 287 287 286 285 284 285 285 286 286 287 287 286 285 285 285 285 285 285 284 284 283 282 282 282 281 282 282 282 282 282 282 280 279 277 276 275 274 273 272 272 272 272
296 296 294 295 298 297 296 298 299 298 297 294 292 293 292 291 292 292 292 292 292 292 292 291 290 290 290 290 290 290 290 290 289 289 289 289 289 289 289 289 289 288 288 288 287 286 285 284 284 284 285 286 287 287 286 285 285 285 284 284 284 284 283 283 282 281 281 281 281 281 282 282 282 282 282 281 279 276 275 274 273 273 272 272 271 271
296 296 293 293 296 295 294 297 298 298 295 292 291 293 292 291 292 292 291 292 292 291 291 291 290 290 290 290 289 289 289 289 289 289 289 288 288 289 289 289 289 288 288 287 286 285 284 284 284 284 285 286 286 285 285 285 284 283 283 282 282 282 282 282 281 281 281 281 281 282 282 282 282 282 281 280 278 276 275 274 273 272 272 271 271 271
295 296 296 296 295 293 294 297 298 297 295 292 292 292 292 291 291 291 291 292 291 291 291 290 290 290 289 289 289 289 289 288 288 288 288 288 288 288 289 289 289 288 287 286 285 283 283 283 284 284 285 285 285 284 284 283 282 282 281 281 281 281 280 280 280 280 280 280 281 282 282 282 282 281 281 280 278 276 275 274 273 272 271 271 271 270
293 294 296 296 294 294 297 299 297 295 294 292 292 292 291 291 291 291 291 291 291 291 291 290 290 289 289 289 288 288 288 288 288 288 288 288 288 288 288 289 288 287 286 284 283 283 283 283 284 284 285 284 283 283 282 281 281 280 280 280 279 279 278 278 278 279 280 280 281 281 281 281 281 280 280 280 278 276 275 274 273 271 271 270 270 270
294 293 293 294 294 294 295 295 294 293 292 292 292 291 291 291 291 291 291 290 290 290 290 290 289 289 288 288 288 288 288 288 288 288 288 288 288 288 288 288 286 285 284 283 282 282 283 283 284 284 283 282 281 281 280 279 279 279 278 278 277 277 277 277 278 279 280 280 280 281 281 281 280 280 280 279 278 276 275 274 272 271 270 270 270 270
292 291 291 293 293 292 292 292 292 292 292 292 291 291 291 291 291 290 290 290 290 290 290 289 289 288 288 288 288 287 287 287 287 287 287 288 288 287 287 285 284 283 283 282 282 283 283 283 282 282 281 280 280 279 278 278 277 276 276 276 276 276 277 278 278 279 280 280 280 280 280 280 279 279 279 278 277 276 274 273 272 271 270 270 269 270
291 291 291 291 291 291 292 292 291 291 291 291 291 291 291 290 290 289 290 290 290 290 289 288 288 287 287 287 287 286 287 287 287 287 287 287 286 285 284 283 283 282 282 282 282 282 282 281 280 280 279 278 278 277 277 276 275 275 275 275 276 277 277 278 278 279 279 279 279 279 279 279 278 279 278 278 276 275 273 272 271 270 269 269 269 270
291 291 290 290 290 291 292 291 290 290 291 290 290 291 290 289 289 289 289 289 289 289 288 287 287 286 286 286 286 286 286 286 286 286 285 284 283 283 282 282 281 281 281 281 281 281 280 279 278 277 277 276 276 275 274 274 274 274 275 275 276 277 277 277 277 277 277 278 277 277 277 278 277 277 277 277 276 274 273 272 271 270 270 270 270 270
290 290 289 288 289 290 290 290 289 289 289 289 290 289 288 288 288 288 289 289 288 287 286 286 286 285 285 285 285 286 286 285 283 282 282 282 281 281 281 281 281 281 281 280 280 279 278 277 276 276 275 275 274 273 273 273 273 274 275 276 276 276 276 276 276 276 276 276 276 276 276 276 276 276 276 275 275 274 273 272 271 270 270 269 269 269
288 289 288 288 288 289 289 289 289 289 288 288 288 288 288 288 288 288 288 287 285 285 285 285 285 284 284 285 285 284 283 282 281 280 280 280 280 280 280 280 280 280 279 278 277 276 275 275 274 274 273 272 272 272 272 273 274 274 275 276 276 275 275 275 274 275 275 275 275 275 275 275 275 275 275 274 274 273 272 271 270 269 269 268 267 268
288 288 288 288 288 288 288 289 288 288 287 287 287 287 287 287 287 286 285 284 284 284 284 284 284 284 284 284 283 281 280 279 279 279 279 279 280 280 280 280 279 278 277 276 275 274 273 273 273 272 271 271 271 272 272 273 274 275 275 275 275 274 274 273 273 273 273 273 274 274 275 275 274 274 274 274 273 272 271 270 269 269 268 267 267 268
Wind_Speed
5 2 2 4 5 4 3 4 5 4 5 5 4 2 3 3 6 4 2 3 0 1 7 7 8 14 20 18 16 17 17 21 26 26 28 31 31 31 31 32 32 32 29 25 27 29 29 30 31 32 33 33 34 35 36 38 39 40 41 41 41 41 41 41 41 40 39 39 39 39 39 39 39 40 41 42 42 41 36 30 26 24 22 20 21 21
5 1 4 5 6 5 4 4 5 5 5 4 4 1 2 3 6 4 0 3 1 0 5 4 5 13 20 19 15 11 10 16 23 25 26 30 30 31 32 32 31 30 27 26 27 27 27 29 29 31 32 33 34 34 36 38 39 40 41 42 42 42 43 43 42 41 40 40 40 40 39 39 39 40 41 42 42 40 36 30 25 22 21 21 21 21
3 3 5 5 6 6 5 4 5 5 5 3 3 1 3 3 4 5 2 3 2 1 5 4 5 14 21 19 12 9 12 15 19 21 24 26 27 29 30 29 28 27 27 25 24 23 24 27 27 30 30 31 33 33 35 37 38 40 41 41 42 43 44 43 42 41 41 40 40 40 40 39 40 40 41 42 41 40 36 30 25 21 20 20 21 21
2 4 4 6 8 7 5 3 5 4 2 2 3 1 4 2 1 4 3 3 2 3 5 6 6 10 15 13 7 5 9 12 13 15 19 22 25 27 27 27 26 26 25 22 20 20 22 24 25 27 27 29 31 31 33 34 36 38 39 40 41 42 43 43 42 42 41 41 41 41 40 40 40 40 41 42 41 39 36 31 26 22 19 19 21 21
4 3 5 7 4 5 4 1 4 3 2 2 4 4 5 3 2 5 3 5 4 2 3 6 7 6 6 7 5 3 2 6 9 11 16 19 22 24 24 24 24 24 23 21 20 19 20 23 23 24 26 27 29 29 30 32 34 36 37 39 41 42 43 43 43 43 42 41 41 41 40 40 40 40 41 41 40 38 36 32 27 23 20 18 20 20
4 3 6 6 3 4 5 2 3 4 1 4 4 7 6 3 2 3 4 5 4 3 2 4 6 5 3 5 7 4 5 6 6 8 14 17 17 20 21 20 20 20 20 21 20 19 20 22 22 24 25 26 27 28 28 30 31 34 36 38 40 41 43 43 43 43 42 42 42 41 41 40 40 40 41 40 40 39 35 31 27 24 21 19 19 20
1 2 4 4 4 4 4 2 4 5 4 3 3 4 5 3 1 4 4 3 1 3 3 3 0 5 5 6 7 5 7 9 6 6 12 14 13 15 16 15 15 17 17 18 19 19 20 21 22 24 24 26 27 27 27 29 30 32 34 36 38 40 41 42 42 42 43 43 42 42 41 40 40 40 41 40 40 39 35 31 28 24 22 20 19 20
3 3 2 3 4 3 2 3 5 7 6 3 3 3 3 1 4 3 1 1 2 3 3 1 3 3 5 6 5 5 7 9 7 6 9 11 11 11 11 11 12 13 14 16 18 18 20 22 23 25 25 26 28 28 29 30 30 31 33 35 37 38 40 41 42 42 43 43 42 42 41 41 40 40 40 40 40 39 35 32 28 25 23 21 20 20
3 4 5 5 3 2 4 4 6 8 3 3 3 3 1 1 1 2 4 2 1 3 4 2 2 2 5 6 4 3 4 7 7 6 7 7 6 7 8 8 9 11 13 16 18 19 21 23 24 25 26 27 28 29 30 30 31 31 33 34 36 37 39 39 40 42 43 43 42 42 41 41 40 40 40 40 39 39 35 32 29 26 24 22 21 21
1 2 5 6 4 4 4 2 4 5 1 2 5 4 4 4 3 3 3 2 2 2 4 4 2 1 4 6 4 2 2 4 6 5 6 5 3 5 7 6 8 11 13 16 19 21 23 25 25 27 28 28 29 30 32 32 32 33 33 34 36 37 38 38 40 41 42 43 42 41 41 40 40 40 40 40 39 38 35 32 29 27 25 23 22 21
0 1 1 3 3 4 3 2 1 3 2 3 4 2 2 4 4 2 1 3 3 3 5 4 1 1 2 5 4 1 1 2 3 4 6 5 4 6 8 9 10 12 14 18 21 24 26 27 28 29 30 30 31 32 33 34 34 34 35 35 36 37 37 38 39 40 42 42 42 41 40 40 40 39 40 40 39 38 35 32 29 27 26 25 23 22
2 1 1 1 1 3 5 3 2 2 2 3 2 2 2 3 3 3 3 3 2 4 5 3 2 2 1 5 4 4 5 4 4 5 7 7 12 15 15 16 16 16 19 22 25 27 29 30 31 32 33 33 33 34 35 36 36 36 36 37 37 38 38 38 39 40 41 41 41 41 40 40 40 39 40 40 39 37 34 32 29 28 27 26 24 23
2 3 2 1 2 2 3 1 2 3 3 3 2 2 3 4 3 3 3 1 2 4 2 2 2 1 4 8 9 9 10 5 5 7 8 11 17 20 19 20 20 22 24 27 29 30 32 34 35 35 35 35 35 36 37 37 38 38 39 39 39 39 39 38 39 40 40 41 41 40 40 40 39 39 40 40 39 37 34 32 29 28 28 27 26 24
3 3 2 2 1 1 2 2 1 2 1 1 1 2 1 1 3 4 4 3 4 3 2 2 2 2 4 7 8 9 10 8 6 8 10 11 14 17 19 22 23 25 28 30 31 33 36 37 38 37 37 37 37 38 38 39 39 40 41 41 41 41 40 39 39 40 40 41 40 40 40 39 39 39 40 39 39 37 34 31 30 29 28 27 26 25
1 4 1 1 1 1 1 2 2 2 2 2 2 4 3 3 1 4 4 3 6 4 2 3 1 2 3 4 4 6 11 10 7 7 7 8 11 16 20 23 26 29 32 34 35 37 39 40 40 40 39 38 37 37 39 39 40 41 42 42 43 42 41 41 41 40 41 41 40 40 40 40 39 39 39 39 38 37 34 31 29 29 28 27 26 25
1 4 3 1 2 1 1 1 2 3 2 1 1 4 1 3 3 2 3 3 2 4 3 2 2 4 4 6 7 6 7 4 6 8 10 13 17 20 24 27 29 33 35 37 38 39 40 40 40 40 39 39 38 37 37 38 40 42 42 42 43 43 43 42 42 42 41 41 41 41 40 40 40 39 39 39 38 36 34 31 29 29 28 27 26 25
1 4 3 3 2 3 2 1 1 1 1 1 1 1 3 3 5 1 2 1 3 2 4 1 3 5 4 6 7 5 5 6 8 11 15 19 22 23 26 29 31 34 37 37 38 39 40 40 40 40 40 39 38 37 37 37 38 41 42 43 43 44 44 44 44 43 42 42 42 41 41 40 40 39 39 39 38 35 33 32 30 29 29 27 26 25
1 3 4 2 0 2 2 0 3 4 2 2 1 3 2 2 4 3 1 4 3 2 5 1 3 5 3 4 6 6 8 8 8 10 15 20 23 24 26 30 33 35 36 37 38 39 39 40 40 40 40 40 39 38 38 37 38 39 40 42 44 45 45 45 45 44 44 44 43 42 42 41 40 39 39 39 38 35 33 32 30 29 28 27 26 25
2 2 6 1 1 3 3 1 2 5 5 3 3 2 1 1 1 1 0 2 2 3 6 3 2 2 3 4 3 4 6 7 7 8 11 15 20 23 26 30 33 35 37 38 38 39 38 38 40 41 40 39 38 38 37 37 38 38 39 40 43 45 46 46 46 45 46 45 45 44 43 41 40 39 38 39 38 35 32 32 30 29 28 27 26 25
2 1 4 3 2 2 3 1 2 2 4 4 1 2 2 2 3 1 1 2 1 3 5 3 1 2 5 5 3 4 5 4 6 8 7 12 19 22 25 29 33 35 37 38 38 37 37 38 40 41 40 39 39 38 37 37 38 39 39 40 41 43 45 47 47 47 48 47 46 45 44 43 41 39 38 39 38 35 32 31 30 29 28 27 26 25
2 2 4 4 2 1 1 2 4 4 2 2 1 1 1 0 1 1 0 2 2 2 3 4 4 4 4 4 4 4 4 5 6 6 7 14 22 24 26 29 32 35 37 37 36 35 36 39 41 40 40 40 40 39 39 38 39 39 40 40 40 41 43 45 47 48 49 49 48 47 45 44 41 39 39 39 38 36 33 31 30 29 28 28 27 26
1 2 2 3 4 2 3 2 2 5 5 4 3 4 3 2 2 1 3 1 2 2 4 3 7 7 4 3 4 1 3 5 8 8 10 20 27 28 30 32 33 35 36 35 33 33 36 39 40 40 41 41 42 42 41 40 40 40 40 41 41 41 42 43 45 48 50 51 50 49 47 44 42 41 40 39 38 35 33 31 30 28 28 28 27 26
1 3 1 4 5 3 2 1 0 2 4 4 2 2 3 3 4 3 4 3 1 1 2 1 4 7 4 3 4 3 4 7 13 16 19 27 31 30 31 34 36 35 35 33 31 33 36 37 38 39 41 42 43 43 43 42 42 42 42 42 42 43 42 41 43 45 48 51 51 50 48 45 43 42 40 39 38 35 32 31 29 28 28 28 27 26
1 2 1 4 5 3 3 3 2 2 3 3 1 1 3 2 3 5 4 2 2 2 1 1 4 5 3 3 5 1 6 13 20 24 26 29 32 32 32 35 36 36 35 31 30 35 38 38 38 39 40 42 43 43 44 45 44 44 43 43 42 43 43 42 42 43 46 49 50 51 49 47 45 44 42 40 37 34 32 30 29 29 28 28 28 27
1 1 2 3 6 6 5 5 5 4 0 2 2 0 2 3 5 2 2 3 1 4 6 4 6 4 2 3 5 7 11 15 22 28 30 30 32 33 35 37 37 36 34 31 34 40 40 39 39 38 39 41 42 43 44 45 45 46 45 45 44 43 42 42 42 42 44 45 48 50 50 48 47 45 43 39 36 33 31 30 29 29 29 28 28 28
2 1 2 1 3 4 5 5 3 2 2 1 1 1 3 3 5 2 1 2 2 5 6 5 8 8 6 10 11 9 10 13 19 27 32 33 32 33 35 37 38 37 33 31 37 41 40 39 39 38 39 41 41 42 44 45 45 46 46 45 44 43 42 40 41 41 42 43 45 47 49 49 48 47 43 39 36 33 31 30 29 29 29 29 28 28
2 0 2 5 6 7 8 6 1 2 2 4 3 4 5 4 5 4 2 2 3 2 3 6 9 13 15 14 11 9 10 11 15 22 28 31 33 33 33 35 36 33 29 31 37 39 38 39 39 39 40 41 42 43 43 44 44 45 46 45 44 44 42 40 39 40 41 41 43 45 47 48 49 48 43 39 36 33 31 30 29 29 29 29 29 28
4 1 4 6 9 11 9 7 3 2 3 7 6 6 5 4 5 5 5 7 3 1 4 7 7 11 15 15 11 11 11 10 13 20 26 29 32 33 33 35 33 28 27 32 37 37 37 38 39 40 42 42 43 43 44 44 44 45 46 46 46 46 45 43 40 40 40 41 42 43 44 45 48 47 43 39 36 34 33 32 30 30 30 29 29 28
4 3 3 3 8 11 8 9 8 3 5 5 4 8 7 4 7 8 10 10 4 3 9 11 9 11 16 16 12 11 12 14 17 24 28 31 32 33 35 35 30 26 30 36 40 39 39 39 40 41 42 42 43 44 44 45 45 46 46 46 46 46 46 45 44 42 41 40 41 42 42 43 46 47 44 40 37 35 34 33 32 30 30 30 29 28
3 3 2 1 6 11 9 8 6 2 3 4 5 8 7 6 9 9 10 10 7 9 14 15 15 16 14 12 11 14 19 22 23 26 29 30 31 33 36 34 28 28 35 40 42 42 41 41 41 42 42 42 43 43 44 45 46 47 47 46 45 45 46 47 46 44 42 42 42 41 40 42 44 46 44 41 38 37 36 35 33 32 31 30 29 28
2 3 1 3 3 9 6 4 3 3 3 4 7 7 4 3 5 5 6 6 5 8 12 12 13 13 9 9 13 20 24 23 22 25 29 31 33 35 35 29 26 31 40 43 44 43 42 42 43 43 43 43 43 44 43 43 45 48 48 47 46 44 45 46 46 44 43 43 42 40 39 40 42 44 45 43 40 38 37 36 34 32 32 32 31 30
2 1 1 4 3 6 3 6 6 2 2 2 5 7 6 3 2 3 4 5 5 8 10 8 7 6 6 10 17 22 23 21 20 23 27 32 37 37 30 23 27 36 43 44 44 44 44 45 46 47 46 45 45 45 44 44 45 48 48 48 47 45 43 44 45 44 44 43 41 40 40 40 41 43 45 44 42 39 38 37 35 33 33 33 32 31
2 2 1 2 2 5 4 6 8 4 4 1 1 4 6 5 4 4 4 5 6 6 5 5 4 5 8 12 16 19 19 20 21 23 26 32 37 33 25 25 34 42 44 44 44 44 45 47 49 49 47 47 46 46 45 44 45 46 47 47 47 46 43 41 42 43 44 43 41 40 40 40 41 42 44 45 43 41 39 39 36 34 33 33 32 32
2 4 2 1 1 5 8 8 7 4 2 3 3 3 4 6 6 5 7 11 10 4 3 4 5 7 11 12 13 17 21 26 29 30 32 35 31 25 26 35 42 45 45 45 45 46 47 49 50 49 48 47 46 46 45 43 43 45 47 46 46 46 44 40 39 42 44 44 43 40 40 40 41 42 43 44 44 43 41 40 38 34 33 33 32 33
3 4 1 1 2 4 6 7 7 3 3 5 4 1 5 7 7 7 8 12 11 3 1 6 8 10 15 19 21 25 30 36 38 37 36 30 21 21 32 41 42 43 44 44 45 46 48 49 50 50 50 48 47 47 46 43 43 46 48 48 46 45 43 37 35 39 42 43 43 41 39 39 40 41 42 44 45 45 43 42 39 36 34 33 33 33
5 4 2 1 1 2 3 5 3 5 4 3 4 5 7 4 3 6 7 9 8 1 3 7 10 14 22 26 29 30 34 39 41 36 26 16 16 27 37 39 39 40 42 42 43 45 46 47 50 51 51 50 49 48 46 43 43 45 48 49 47 46 42 35 35 40 43 44 44 42 40 39 39 40 41 42 45 46 45 44 41 37 35 34 33 33
6 4 1 1 1 1 0 1 4 5 4 3 4 6 7 5 5 6 6 7 4 3 5 10 12 18 25 29 31 34 34 33 30 24 15 13 23 35 38 37 38 39 40 42 44 46 47 50 53 53 52 51 49 48 46 42 42 46 49 48 48 48 44 38 39 43 45 46 47 45 42 40 39 39 40 41 43 45 46 45 42 38 35 34 34 33
4 2 2 2 0 2 1 3 4 4 3 2 2 6 9 11 10 6 3 5 2 2 13 15 13 19 26 29 33 35 30 21 16 16 21 27 36 40 39 41 41 39 41 45 47 50 54 57 60 58 53 49 49 49 45 41 43 48 49 49 51 49 41 37 41 46 47 48 49 49 45 42 40 39 39 40 42 43 44 44 43 39 36 35 34 33
6 3 3 3 1 2 2 1 1 2 4 3 4 10 17 14 8 3 1 4 3 10 23 21 17 23 26 28 32 28 19 12 10 21 36 45 46 45 44 46 47 47 48 49 47 50 56 63 64 59 51 48 50 48 43 41 46 49 48 50 52 46 38 40 48 51 51 50 51 51 48 44 42 40 39 39 40 40 41 42 42 39 36 35 34 32
6 4 3 2 1 1 3 1 2 4 4 2 5 15 22 12 1 3 5 6 8 21 29 25 24 27 28 30 30 19 11 11 15 30 48 52 51 50 48 47 50 52 52 51 48 50 59 64 62 55 51 51 50 45 41 44 47 46 45 47 46 44 44 49 54 55 54 53 53 53 49 44 42 41 39 38 38 38 39 40 40 39 37 35 34 32
3 2 2 1 2 1 3 2 3 4 3 4 11 20 23 13 3 4 7 12 19 29 31 28 29 30 30 31 27 19 21 28 34 43 52 51 50 53 51 49 50 49 48 47 47 53 62 63 57 52 52 49 44 41 42 44 44 44 47 49 48 50 53 55 55 55 55 54 54 53 48 43 42 41 39 37 36 36 38 39 39 38 36 35 34 33
2 1 2 1 2 1 3 2 4 4 2 8 19 20 18 11 3 6 16 23 27 30 32 34 33 31 31 34 33 32 38 46 49 50 51 50 51 52 52 51 49 47 44 44 50 58 62 58 54 53 49 44 41 41 41 41 43 48 51 51 52 54 55 55 55 55 55 55 54 50 45 43 42 40 38 36 35 35 37 38 39 38 37 35 34 33
1 0 2 2 2 0 1 1 2 3 3 16 22 14 9 7 10 19 27 30 30 30 33 35 34 32 34 37 41 45 49 51 52 52 52 52 52 51 53 51 46 42 43 49 58 61 58 54 53 50 45 42 41 39 39 42 48 53 53 52 53 55 55 56 56 55 54 53 50 46 43 43 41 39 37 36 35 35 35 37 38 38 37 36 35 33
1 2 2 3 2 2 1 1 1 5 12 21 19 9 11 20 25 26 27 28 32 35 35 35 36 39 40 41 45 49 50 49 51 52 52 52 53 54 54 48 42 43 50 57 62 60 56 53 51 46 42 41 40 41 45 49 52 55 56 55 56 57 57 56 54 52 50 48 45 44 43 41 39 37 36 35 35 34 34 35 36 37 37 36 35 33
2 4 2 4 2 1 4 7 10 15 20 23 21 21 29 33 30 28 28 30 34 37 36 36 39 43 44 45 46 48 48 49 51 52 53 54 55 52 47 44 45 50 55 60 61 57 52 49 45 43 45 47 48 52 54 52 50 53 58 59 58 56 54 52 49 46 46 46 45 45 43 40 38 36 35 35 34 33 33 34 35 36 37 36 35 33
5 10 5 2 3 8 8 9 14 19 22 26 31 33 32 31 31 33 35 36 37 37 36 37 40 42 43 43 43 46 48 50 52 54 54 52 50 47 46 49 54 56 58 61 58 51 47 46 47 50 55 59 61 61 57 53 51 53 56 56 53 50 48 47 46 46 46 47 47 45 42 39 36 34 33 34 34 32 31 32 33 34 35 36 35 33
7 14 9 3 5 8 5 7 15 21 25 32 35 32 28 30 35 38 38 38 38 36 37 40 43 43 42 41 42 46 50 51 51 51 51 49 49 51 54 56 58 60 61 57 49 45 47 52 57 61 64 66 64 60 57 57 55 53 50 47 45 46 47 46 44 43 42 41 40 39 37 35 34 32 33 33 33 32 31 31 32 33 34 35 34 32
9 13 9 4 4 5 8 14 24 30 29 27 25 25 30 36 40 40 38 36 35 36 41 44 43 42 43 43 44 47 48 47 46 47 51 53 54 55 56 57 59 59 55 48 46 50 57 61 64 65 63 61 60 59 59 58 54 49 45 44 44 44 41 37 35 34 33 32 33 33 34 34 33 33 33 33 32 31 30 30 31 32 33 33 32 30
9 9 7 6 6 6 9 16 27 30 24 19 21 28 36 41 43 41 38 36 37 42 46 45 43 45 46 46 44 42 41 44 49 53 56 55 54 55 56 57 54 50 47 49 56 62 64 62 60 57 56 56 58 59 59 55 50 46 45 44 40 35 32 33 35 35 33 33 33 34 34 34 33 33 33 33 32 31 29 28 29 29 29 29 29 27
9 6 7 8 6 5 7 16 22 19 16 25 36 41 42 43 43 41 42 44 47 47 45 44 48 51 48 43 39 39 42 49 55 56 54 53 53 53 52 49 46 47 53 60 65 65 62 58 53 52 54 58 59 58 54 50 48 47 45 38 31 29 33 39 41 41 40 39 38 36 35 34 34 34 33 32 31 29 28 27 27 27 27 27 26 25
12 8 9 9 7 10 17 23 23 19 22 34 44 45 42 41 42 45 49 51 49 45 43 45 49 48 44 44 48 49 50 53 54 53 53 54 51 47 45 45 49 56 62 63 61 59 58 55 53 55 58 59 58 54 51 50 49 46 38 30 28 33 40 43 45 47 47 45 42 39 36 34 34 34 33 32 30 28 26 26 26 26 26 26 26 23
Wind_Direction
49 81 172 208 218 205 189 161 152 142 119 119 126 155 209 241 274 253 254 292 95 283 267 240 244 266 273 273 273 269 252 240 245 248 249 249 250 251 253 256 257 258 264 271 273 274 276 277 278 278 276 273 271 271 271 271 273 276 278 280 282 283 283 284 286 288 289 291 294 298 301 305 309 312 314 317 321 323 322 319 316 310 303 296 291 288
52 144 231 222 206 174 154 135 106 92 82 88 124 183 260 224 258 262 225 310 12 99 270 258 265 274 276 278 280 265 231 230 237 237 243 246 247 251 253 257 260 263 269 273 275 278 281 282 284 283 282 279 277 275 274 274 276 277 278 280 282 282 282 283 285 286 287 290 293 296 299 303 307 310 313 316 319 322 320 318 315 308 300 294 290 288
21 232 236 193 154 112 82 79 82 89 93 85 118 145 289 250 269 293 342 345 6 215 278 310 305 282 279 283 286 248 223 238 244 240 246 249 248 252 254 259 263 267 271 274 280 285 286 288 289 288 288 288 285 281 278 277 277 277 278 280 282 281 281 283 284 285 286 288 291 294 297 301 305 309 311 314 318 320 319 318 316 308 299 292 289 288
314 250 210 157 139 101 69 52 83 99 112 121 124 142 271 279 306 283 317 338 268 228 283 300 294 277 280 294 307 266 234 248 258 253 253 252 251 255 258 262 265 267 272 277 286 293 294 294 295 295 296 295 292 288 284 281 279 279 281 282 282 281 281 282 282 283 284 286 289 293 296 299 303 307 310 313 317 318 318 317 315 309 299 290 286 286
247 241 150 137 123 105 122 116 109 122 312 287 176 190 239 260 231 234 290 324 296 299 309 307 302 274 290 314 307 327 304 266 273 267 258 252 251 256 259 262 264 267 274 280 289 298 300 299 300 299 298 296 294 292 290 287 284 283 283 282 282 280 280 280 280 281 282 284 288 291 294 298 302 306 308 312 315 316 316 315 313 307 299 290 285 284
248 198 152 131 74 93 133 211 193 156 309 306 235 209 205 197 235 272 326 342 345 341 318 357 336 290 321 318 282 316 349 308 293 273 266 260 253 253 257 263 269 273 278 283 290 300 301 301 301 299 298 296 294 294 293 290 286 284 283 282 281 280 279 279 279 280 281 283 286 289 292 296 300 304 307 310 313 313 314 313 310 305 299 293 287 284
201 135 150 134 111 97 93 256 234 155 123 302 258 187 160 141 315 319 346 359 339 282 287 67 275 269 317 311 289 323 325 309 305 274 272 272 262 255 259 271 277 280 285 288 293 300 301 303 303 300 299 297 296 295 292 288 285 285 284 283 281 280 279 279 279 279 280 282 285 288 291 294 298 301 305 309 311 312 312 311 309 304 299 294 289 286
137 110 112 110 109 107 102 254 224 141 123 246 230 134 104 12 299 289 104 181 239 279 314 64 174 256 303 285 289 329 319 318 325 302 284 276 266 260 264 275 281 286 291 291 294 299 303 305 305 302 301 298 295 294 290 288 287 286 285 284 283 281 279 279 278 278 279 281 284 286 289 292 297 300 304 307 309 311 311 309 307 303 297 294 291 289
141 161 192 155 115 181 220 228 187 147 132 248 193 120 66 38 272 158 134 184 280 351 316 290 155 216 274 274 306 347 333 325 316 298 291 281 262 256 261 273 288 297 298 295 296 300 304 307 306 304 302 299 296 293 291 290 289 287 285 284 283 282 281 279 279 278 279 280 282 284 287 291 295 299 302 305 308 310 309 307 304 301 297 293 291 289
145 187 198 156 149 216 227 240 173 154 131 184 141 93 64 65 58 85 108 124 56 5 265 250 164 184 273 283 309 2 17 301 284 277 280 276 241 235 255 278 298 308 309 307 306 307 309 309 308 305 301 300 299 295 293 290 289 288 286 285 284 284 283 280 279 278 278 279 281 283 286 290 294 298 301 303 307 309 308 305 302 299 295 291 289 286
340 53 207 158 178 196 147 59 101 122 110 138 119 55 43 43 41 53 71 92 65 303 257 252 249 105 302 282 266 233 181 215 259 301 288 278 279 282 295 308 311 314 318 319 318 317 317 314 310 306 303 304 302 298 294 292 290 289 288 286 285 284 282 280 278 277 277 278 280 283 286 289 293 296 299 302 305 307 306 302 300 297 293 290 287 284
353 62 238 230 195 144 105 71 31 61 102 112 75 19 346 340 12 21 354 46 77 264 263 281 293 120 233 272 255 250 263 225 219 279 292 304 314 319 324 325 323 322 323 326 326 325 325 322 319 314 309 307 303 300 297 295 292 290 288 286 285 284 283 280 279 277 277 278 279 282 285 288 292 295 297 301 304 305 304 300 297 294 291 289 285 281
310 227 275 12 151 141 120 103 359 13 52 74 60 42 9 340 353 344 314 314 220 238 276 334 322 204 231 258 266 271 282 272 232 256 280 302 314 325 335 337 337 335 334 334 334 333 333 332 331 326 319 312 306 302 301 297 294 291 289 287 285 285 284 281 279 278 277 278 280 282 284 287 291 293 296 299 302 304 303 299 295 292 290 287 284 281
330 293 345 56 182 108 135 166 260 326 63 139 186 108 82 11 355 307 284 299 281 259 317 325 304 286 266 271 263 254 279 301 299 291 295 304 316 332 343 346 345 343 342 341 340 340 341 341 340 336 330 323 314 308 304 300 297 293 290 288 286 286 285 282 280 278 278 279 280 281 283 286 289 292 295 298 300 302 301 297 293 290 288 285 283 279
335 297 321 127 278 2 92 181 171 141 121 191 182 122 144 162 184 266 252 273 290 299 319 308 282 196 220 274 261 254 285 305 321 316 319 340 348 349 349 348 346 345 346 345 343 343 343 343 343 341 339 334 327 319 310 305 301 297 294 291 289 288 286 283 281 279 279 279 280 280 282 284 287 290 294 296 299 301 300 296 292 288 286 284 281 278
168 263 268 323 307 74 82 225 137 101 87 244 151 107 154 177 159 239 212 190 293 324 303 274 237 214 225 282 302 308 307 351 40 18 18 17 5 355 348 346 346 345 346 345 343 342 343 344 345 345 344 341 337 330 321 314 307 302 299 295 292 290 286 284 282 280 279 279 278 279 280 283 285 289 292 295 297 299 299 295 290 287 285 282 279 276
17 278 298 352 349 60 64 245 81 56 211 164 102 178 224 170 121 103 277 26 58 317 279 234 247 286 319 306 310 348 3 24 25 11 14 8 355 349 345 344 345 344 343 342 341 341 342 346 348 349 348 346 343 339 332 325 317 308 302 297 294 291 287 284 282 280 279 277 276 278 279 281 284 287 291 293 295 297 297 293 288 286 284 281 279 276
144 279 304 13 51 12 23 354 35 45 92 111 170 227 225 107 86 93 293 347 32 264 274 225 235 293 340 303 315 6 3 349 351 358 2 355 345 341 340 341 341 341 340 339 340 342 345 348 350 349 347 345 344 342 339 335 327 318 310 303 297 293 290 286 284 281 278 276 275 277 278 280 283 285 288 291 293 294 295 292 288 285 282 280 277 274
118 290 305 332 178 307 352 52 9 22 50 102 174 195 89 141 284 47 94 314 341 291 284 257 230 272 235 242 304 347 333 326 337 352 353 340 335 335 335 337 339 339 339 339 341 343 347 349 348 345 343 342 341 340 338 337 334 328 322 313 305 299 294 288 283 279 277 275 274 275 277 279 281 283 286 290 291 291 293 292 288 284 281 277 273 269
107 93 289 276 224 298 6 102 231 325 31 56 70 7 40 158 189 166 146 181 208 285 288 290 330 252 235 213 198 280 307 349 354 346 332 321 327 333 334 336 337 338 338 339 340 343 347 347 343 342 342 342 341 340 338 337 335 333 329 323 316 308 299 290 284 280 277 275 274 275 276 277 279 281 285 288 289 289 291 291 287 285 282 278 272 268
62 116 256 289 314 300 289 208 197 181 133 75 66 321 318 192 178 229 214 148 153 226 260 289 290 256 242 204 197 272 336 34 359 323 304 322 334 338 338 337 337 337 337 338 340 343 345 343 340 341 342 342 343 342 341 339 336 334 331 328 323 316 306 297 290 283 278 276 274 274 275 277 278 280 282 286 288 289 290 290 287 285 283 278 273 270
59 152 215 293 314 265 245 247 185 174 165 152 176 201 188 153 132 260 289 272 113 177 197 250 287 272 242 195 201 257 51 23 339 321 323 335 340 339 338 337 336 335 335 336 340 343 342 340 340 341 342 343 343 343 343 341 338 336 333 330 327 320 313 307 298 288 282 277 274 274 275 276 277 278 280 284 287 289 290 289 287 286 282 278 274 270
137 112 131 271 265 252 272 326 86 177 148 131 164 177 147 136 132 161 247 257 148 235 190 138 279 274 262 184 174 131 61 358 342 344 342 338 337 336 336 335 334 333 333 335 338 341 340 339 340 341 342 342 343 343 344 343 342 340 336 334 329 324 320 314 305 295 286 279 276 275 274 274 276 276 278 282 286 289 291 290 287 285 282 279 275 271
118 87 34 282 283 324 348 5 20 40 97 111 291 128 144 163 138 161 198 189 181 224 196 358 275 267 269 193 182 155 6 353 349 349 344 335 331 333 333 331 331 331 331 333 337 339 339 339 340 341 342 342 342 343 344 345 345 344 342 338 333 329 325 320 310 300 292 284 279 276 273 273 274 275 276 281 285 289 290 290 287 284 282 280 276 272
200 220 55 330 322 338 349 355 349 339 51 183 234 217 176 135 99 112 162 106 257 226 183 215 266 253 231 282 302 338 354 351 347 343 337 330 328 329 329 329 329 328 329 333 338 339 339 339 340 340 340 341 342 343 344 344 345 344 343 342 338 334 330 324 316 306 298 290 284 278 274 272 272 273 275 279 284 287 289 289 286 283 281 280 276 273
193 212 124 114 302 300 302 312 307 278 271 234 149 222 230 169 139 169 171 100 267 238 178 196 266 276 290 306 316 334 347 343 339 336 331 326 324 325 326 326 325 325 328 334 337 337 337 337 337 338 338 340 341 342 342 342 342 342 342 341 340 338 334 328 320 311 303 295 289 282 277 272 271 271 273 278 282 284 285 286 285 282 281 279 276 273
91 224 198 184 205 233 255 262 218 95 306 286 274 247 230 194 157 133 103 179 205 224 207 220 256 281 293 298 306 327 337 332 329 327 323 319 319 321 322 321 320 322 326 333 335 335 334 335 335 336 336 338 339 340 340 340 340 340 340 339 339 338 336 332 325 315 307 300 293 287 281 275 271 271 272 276 279 281 282 283 283 281 280 278 276 271
87 294 248 203 226 247 262 277 309 51 273 264 269 267 247 198 159 151 206 232 209 7 278 237 240 275 287 294 310 325 326 322 319 317 316 314 316 318 318 318 318 320 327 332 334 334 333 333 333 333 334 335 336 337 337 337 337 338 338 338 338 337 336 334 328 321 313 305 297 292 287 280 274 271 271 274 276 278 280 281 282 281 279 277 274 270
118 250 257 199 256 271 277 282 281 264 264 261 248 263 262 210 176 189 229 244 221 234 263 264 270 278 284 295 309 313 311 311 312 312 312 312 314 318 319 319 320 324 330 333 334 334 332 331 331 331 332 332 333 334 335 335 335 335 336 336 336 336 336 335 331 326 320 311 304 300 293 284 276 271 269 271 273 275 278 280 281 279 277 275 273 269
133 234 247 165 284 284 277 282 280 231 274 300 267 261 258 225 206 209 239 256 239 239 258 273 283 281 280 287 294 300 306 309 310 312 312 313 316 320 319 319 322 328 331 333 332 331 329 328 328 329 330 331 331 332 333 333 332 332 333 334 333 333 334 335 334 331 324 317 313 307 297 287 278 271 269 269 271 274 277 278 278 276 275 274 272 268
143 244 246 103 308 291 292 346 27 144 187 273 284 289 294 260 236 222 245 262 256 255 260 270 282 282 276 284 295 303 311 313 313 315 315 316 318 319 317 318 323 329 331 331 329 328 327 326 326 327 329 329 330 331 331 330 330 329 330 331 331 330 329 331 333 333 330 325 319 311 300 291 282 274 269 268 270 273 276 276 276 275 274 273 271 268
143 240 5 59 347 289 318 13 345 281 179 264 305 335 340 314 257 220 229 225 228 260 278 285 283 276 290 309 308 309 314 315 316 317 317 317 318 316 314 318 326 329 329 328 327 327 327 326 325 326 326 327 327 328 328 328 328 328 328 328 329 329 326 325 328 331 333 330 323 314 304 295 286 278 272 269 269 271 274 274 274 274 274 272 272 269
130 134 102 52 317 272 304 336 315 331 41 355 313 16 343 300 274 273 271 256 238 239 270 283 263 276 309 318 315 316 319 319 318 319 317 315 314 313 318 326 329 329 327 326 326 326 325 324 323 323 323 323 324 324 325 325 325 326 326 325 325 326 325 323 324 328 332 332 326 318 309 299 291 283 276 271 269 270 272 273 272 274 274 273 272 270
93 108 133 154 184 272 300 325 329 359 30 252 207 95 344 297 278 278 284 284 275 231 210 272 284 305 315 317 318 318 317 317 317 317 318 316 312 318 330 331 329 327 326 326 326 324 323 322 320 320 320 320 320 320 319 321 323 324 323 322 321 322 323 324 326 327 329 329 327 322 313 304 297 290 282 275 270 268 270 272 272 273 273 271 270 269
117 104 117 157 154 271 309 360 357 318 238 248 236 239 306 281 251 251 261 270 274 271 359 312 307 313 317 320 322 318 315 315 315 315 319 318 315 328 332 328 326 325 324 324 323 322 322 321 319 319 318 318 318 316 314 316 320 323 323 322 320 318 320 326 333 334 332 330 328 323 316 308 301 295 287 279 272 269 269 271 272 272 272 270 268 268
137 133 145 167 170 286 356 31 342 267 259 305 325 321 322 315 287 302 297 271 257 211 23 328 316 321 324 323 321 319 316 315 312 312 317 316 318 328 327 323 322 322 320 321 321 321 321 321 320 318 316 316 315 313 310 311 317 321 321 321 319 315 314 317 324 332 335 335 330 324 316 310 304 297 290 283 275 270 269 271 272 272 272 270 267 267
131 139 154 260 200 156 102 258 280 300 326 14 14 331 319 304 291 302 304 289 246 135 9 337 326 326 325 321 319 320 320 316 310 311 320 320 320 324 322 319 319 319 319 321 322 321 322 322 321 319 316 314 313 311 307 307 315 320 318 319 319 314 307 305 312 324 330 332 332 326 316 309 303 297 291 284 277 273 272 272 273 272 271 268 266 266
90 130 173 186 242 84 81 301 328 343 310 241 274 310 313 299 276 237 243 292 252 26 349 342 333 327 325 322 322 323 323 318 305 307 319 321 321 322 320 318 319 319 320 322 322 322 323 323 323 322 318 314 313 311 306 307 317 320 316 317 318 311 303 305 315 323 325 326 329 327 317 307 301 297 291 284 279 277 275 273 272 271 269 267 266 267
44 39 112 111 7 59 103 285 292 257 255 235 265 316 331 321 284 211 313 281 261 337 341 340 331 326 324 320 319 322 322 316 302 308 317 320 320 321 320 319 320 320 321 321 322 322 323 324 324 322 319 317 314 310 308 313 321 321 317 318 316 309 305 313 320 323 323 323 324 323 316 307 299 295 291 286 282 279 276 273 271 269 267 265 265 265
24 10 46 72 290 162 137 178 240 241 260 271 299 329 339 337 281 59 341 286 307 331 335 335 328 324 323 318 318 319 310 302 300 306 313 316 317 317 318 318 318 319 319 320 321 323 323 324 323 321 320 318 314 310 314 321 324 322 322 323 318 310 311 316 318 320 320 319 319 319 314 306 299 294 291 289 286 281 276 272 269 265 263 263 263 263
14 7 36 119 187 188 167 206 279 267 255 320 335 343 349 348 32 39 323 302 319 325 325 328 326 323 322 319 315 310 302 303 304 306 310 314 314 314 315 314 314 314 315 318 321 324 325 324 322 322 320 317 314 316 321 324 323 322 324 323 317 312 313 314 315 316 316 315 316 315 310 305 300 295 292 291 288 281 274 269 266 263 261 261 261 261
38 22 357 99 159 138 157 184 307 282 245 350 346 349 2 9 1 311 305 306 315 319 320 324 323 321 322 319 314 310 308 309 310 311 312 313 312 311 312 311 311 313 315 319 323 326 326 325 323 323 320 318 319 322 325 324 321 321 321 319 315 314 314 313 313 312 312 312 313 311 308 305 301 297 292 290 285 279 273 269 265 261 258 257 258 259
92 104 322 277 197 55 22 19 345 261 302 351 350 353 18 4 303 298 306 309 314 319 321 321 321 322 324 321 316 314 313 312 313 313 313 313 312 311 310 310 311 315 319 323 325 327 327 325 322 320 319 321 324 325 325 324 321 319 318 315 314 314 312 311 310 309 308 309 310 310 309 305 301 297 292 289 284 279 274 270 265 260 256 255 256 258
87 98 346 277 206 79 15 287 302 290 316 339 345 330 315 314 308 309 314 313 317 322 322 320 321 324 324 321 316 313 312 312 312 313 313 313 312 312 311 312 316 321 324 325 326 328 328 324 320 319 320 324 325 323 323 323 320 317 315 313 313 312 311 310 310 309 308 309 311 313 311 306 301 297 293 288 284 279 274 270 265 259 255 253 254 256
56 50 315 239 209 327 261 256 282 301 315 327 327 316 314 316 319 324 323 318 317 320 320 320 321 322 321 318 314 311 311 312 312 312 312 311 312 313 314 317 321 324 324 325 327 328 328 323 320 321 322 322 321 321 321 322 320 317 315 314 314 314 312 313 313 311 310 312 314 314 311 306 301 297 293 289 284 280 276 271 265 259 253 251 252 255
25 17 358 228 311 311 281 274 296 309 320 322 318 316 318 320 325 327 324 319 316 315 317 319 319 317 317 317 314 312 311 312 311 311 312 313 316 320 322 324 324 324 325 327 328 330 329 326 324 324 322 321 321 322 322 322 320 317 316 316 318 318 318 317 315 312 311 313 315 314 310 305 301 298 295 291 286 282 277 271 266 260 254 251 252 255
5 11 3 340 341 328 297 300 312 316 320 317 314 317 323 324 325 324 320 316 313 314 318 320 319 318 318 319 317 313 311 312 313 315 319 323 325 326 326 325 324 324 326 328 330 331 329 327 325 323 321 321 321 322 322 321 321 321 321 322 324 323 322 320 318 316 316 317 318 316 311 307 304 301 297 293 288 282 276 269 264 258 252 250 251 255
338 356 358 345 335 303 273 294 311 316 316 314 315 322 326 324 322 321 318 315 315 318 322 322 321 322 322 321 319 314 313 317 322 326 328 328 327 326 325 324 324 326 328 330 330 328 326 325 323 322 321 321 322 322 322 323 325 327 328 329 329 327 325 325 326 326 326 326 326 323 317 312 308 303 299 295 290 283 276 270 264 259 254 253 254 257
330 339 342 320 305 283 274 306 323 323 319 320 325 326 325 324 322 321 322 322 323 324 324 324 325 326 324 322 320 320 323 328 331 331 328 326 325 325 325 326 327 329 329 328 326 324 323 323 322 322 321 321 321 323 324 327 329 331 332 332 331 328 328 329 330 330 331 331 331 329 323 317 311 306 301 296 290 285 279 272 266 263 260 258 257 259
352 341 341 333 323 313 308 324 334 330 318 321 325 324 325 326 325 326 327 327 326 326 326 327 328 328 326 326 329 334 335 333 331 329 326 324 325 326 326 328 330 329 326 325 323 322 322 323 323 323 322 322 323 326 328 329 330 332 332 331 327 326 329 332 332 332 331 331 330 329 324 318 313 308 302 296 290 284 277 269 263 259 255 251 251 255
354 338 338 334 310 301 308 319 331 330 315 315 320 322 326 329 329 328 328 327 326 328 330 330 328 328 330 332 333 334 334 331 330 328 325 324 326 328 329 329 328 325 323 323 323 323 324 324 325 325 325 325 326 329 330 330 332 333 331 325 321 324 330 333 332 330 329 328 327 325 321 316 311 306 301 296 290 281 272 264 259 255 250 246 247 252